Alexandria, Egypt

5:52 AM EET on September 30, 2016 (GMT +0200)
Alexandria International

Weather History for HEAX - September, 2012

Change the Weather History Date:

Thursday, September 6, 2012

  Actual Average Record
Temperature  
Mean Temperature 82 °F -  
Max Temperature 87 °F 85 °F 96 °F (1998)
Min Temperature 76 °F 73 °F 68 °F (1998)
Cooling Degree Days 16    
Growing Degree Days 32 (Base 50)    
Moisture  
Dew Point 70 °F    
Average Humidity 68    
Maximum Humidity 83    
Minimum Humidity 45    
Precipitation  
Precipitation 0.00 in - - ()
Sea Level Pressure  
Sea Level Pressure 29.87 in    
Wind  
Wind Speed 10 mph ()    
Max Wind Speed 15 mph    
Max Gust Speed -    
Visibility 6.1 miles    
Events      
Averages and records for this station are not official NWS values.
T = Trace of Precipitation, MM = Missing Value Source: Averaged Metar Reports

Daily Weather History Graph

Daily Weather History Graph

Search for Another Location

Airport or City:

Trip Planner

Search our weather history database for the weather conditions in past years. The results will help you decide how hot, cold, wet, or windy it might be!

Date:

Astronomy

Sep. 06, 2012 Rise Set
Actual Time 5:39 AM EET 6:17 PM EET
Civil Twilight 5:14 AM EET 6:41 PM EET
Nautical Twilight 4:45 AM EET 7:10 PM EET
Astronomical Twilight 4:16 AM EET 7:39 PM EET
Moon 9:40 PM EET (9/6) 10:54 AM EET (9/6)
Length of Visible Light 13h 26m
Length of Day
12h 37m
Waning Gibbous, 70% of the Moon is Illuminated
Sep 6
Waning Gibbous
Sep 8
Last Quarter
Sep 16
New
Sep 22
First Quarter
Sep 30
Full

Hourly Weather History & Observations

Time (EET) Temp. Heat Index Dew Point Humidity Pressure Visibility Wind Dir Wind Speed Gust Speed Precip Events Conditions
12:00 AM 77.0 °F - 71.6 °F 83% 29.89 in 6.2 mi NNW 9.2 mph - N/A   Partly Cloudy
1:00 AM 77.0 °F - 71.6 °F 83% 29.89 in 6.2 mi NNW 9.2 mph - N/A   Partly Cloudy
2:00 AM 78 °F - 70 °F 69% 29.88 in 6 mi NNW 11.5 mph - -   Scattered Clouds
2:00 AM 78.8 °F - 71.6 °F 78% 29.86 in 6.2 mi NNW 11.5 mph - N/A   Partly Cloudy
3:00 AM 77.0 °F - 71.6 °F 83% 29.86 in 6.2 mi NW 9.2 mph - N/A   Partly Cloudy
4:00 AM 77.0 °F - 71.6 °F 83% 29.86 in 6.2 mi North 9.2 mph - N/A   Partly Cloudy
5:00 AM 77.0 °F - 69.8 °F 78% 29.86 in 6.2 mi North 11.5 mph - N/A   Partly Cloudy
6:00 AM 78.8 °F - 69.8 °F 74% 29.86 in 6.2 mi North 11.5 mph - N/A   Partly Cloudy
7:00 AM 80.6 °F 84.6 °F 71.6 °F 74% 29.89 in 6.2 mi North 12.7 mph - N/A   Partly Cloudy
8:00 AM 81 °F - 71 °F 63% 29.89 in 6 mi NNW 11.5 mph - -   Scattered Clouds
8:00 AM 80.6 °F 83.9 °F 69.8 °F 70% 29.89 in 6.2 mi NNW 11.5 mph - N/A   Partly Cloudy
9:00 AM 82.4 °F 87.2 °F 71.6 °F 70% 29.89 in 6.2 mi NNW 12.7 mph - N/A   Partly Cloudy
10:00 AM 84.2 °F 88.4 °F 69.8 °F 62% 29.89 in - NNW 10.4 mph - N/A   Clear
11:00 AM 86.0 °F 90.4 °F 69.8 °F 58% 29.89 in - NNW 10.4 mph - N/A   Clear
12:00 PM 86.0 °F 90.4 °F 69.8 °F 58% 29.86 in - NW 10.4 mph - N/A   Clear
1:00 PM 86.0 °F 86.6 °F 62.6 °F 45% 29.86 in - NNW 10.4 mph - N/A   Clear
2:00 PM 86 °F - 70 °F 49% 29.86 in 6 mi NW 12.7 mph - -  
2:00 PM 86.0 °F 90.4 °F 69.8 °F 58% 29.86 in - NW 12.7 mph - N/A   Clear
3:00 PM 86.0 °F 90.4 °F 69.8 °F 58% 29.86 in - NNW 11.5 mph - N/A   Clear
4:00 PM 86.0 °F 90.4 °F 69.8 °F 58% 29.86 in - NNW 13.8 mph - N/A   Clear
5:00 PM 84.2 °F 88.4 °F 69.8 °F 62% 29.86 in - NNW 15.0 mph - N/A   Clear
6:00 PM 80.6 °F 83.9 °F 69.8 °F 70% 29.86 in - NNW 15.0 mph - N/A   Clear
7:00 PM 80.6 °F 83.9 °F 69.8 °F 70% 29.86 in - North 11.5 mph - N/A   Clear
8:00 PM 80 °F - 70 °F 64% 29.89 in 6 mi NW 11.5 mph - -  
8:00 PM 80.6 °F 83.9 °F 69.8 °F 70% 29.89 in - NW 11.5 mph - N/A   Clear
9:00 PM 78.8 °F - 69.8 °F 74% 29.89 in - North 8.1 mph - N/A   Clear
10:00 PM 78.8 °F - 71.6 °F 78% 29.89 in - NNW 9.2 mph - N/A   Clear
11:00 PM 78.8 °F - 69.8 °F 74% 29.89 in - NNW 10.4 mph - N/A   Clear